Salters, South Carolina
Current Conditions -  °F | °C
As of 2:15 AM on Saturday 25 Oct 2014 (Local Time) from KCKI Reporting Station
Clear Clear  
Wind Chill: 50°   Ceiling: Unl
Heat Index: 50°   Visibility: 10mi
Dew Point: 50°   Wind: 0mph
Humidity: 100%   Direction: NA
Pressure: 29.99"   Gusts: NA
Location:  33.59°N, 79.86°W
Report Text: KCKI 250615Z AUTO 00000KT 10SM CLR 10/10 A2999 RMK AO2
Loading
Personal Weather Stations






























Interactive Weather Map
Tropical Storm Tracking
New forecast layout! Learn more

10-Day Weather Forecast

Advertisements
Track Severe Weather on mobile